| time (UTC) | temp F | wind direction | speed MPH | gust MPH | rain 1hr in | rain 24hr in | rain mn in | humidity % | barometer mb |
| 20260504044544 | 71 | 307 | 4.0 | 12.0 | 0.00 | 0.00 | 0.00 | 46 | 1016.9 |
| 20260504043050 | 70 | 332 | 5.0 | 10.0 | 0.00 | 0.00 | 0.00 | 46 | 1017.1 |
| 20260504041549 | 69 | 14 | 4.0 | 10.0 | 0.00 | 0.00 | 0.00 | 46 | 1017.0 |
| 20260504040045 | 69 | 13 | 5.0 | 9.0 | 0.00 | 0.00 | 0.00 | 46 | 1017.2 |
| 20260504034546 | 70 | 21 | 7.0 | 14.0 | 0.00 | 0.00 | 0.00 | 45 | 1017.1 |
| 20260504033045 | 71 | 13 | 6.0 | 10.0 | 0.00 | 0.00 | 0.00 | 44 | 1017.1 |
| 20260504031545 | 71 | 22 | 4.0 | 9.0 | 0.00 | 0.00 | 0.00 | 44 | 1017.1 |
| 20260504030045 | 70 | 30 | 5.0 | 10.0 | 0.00 | 0.00 | 0.00 | 45 | 1017.0 |
| 20260504024542 | 69 | 30 | 3.0 | 7.0 | 0.00 | 0.00 | 0.00 | 47 | 1017.4 |
| 20260504023048 | 70 | 24 | 4.0 | 15.0 | 0.00 | 0.00 | 0.00 | 45 | 1017.3 |
| 20260504021549 | 71 | 320 | 9.0 | 18.0 | 0.00 | 0.00 | 0.00 | 44 | 1017.6 |
| 20260504020044 | 70 | 348 | 7.0 | 14.0 | 0.00 | 0.00 | 0.00 | 46 | 1017.7 |
| 20260504014559 | 66 | 0 | 0.0 | 3.0 | 0.00 | 0.00 | 0.00 | 52 | 1017.6 |
| 20260504013049 | 65 | 0 | 1.0 | 3.0 | 0.00 | 0.00 | 0.00 | 54 | 1017.9 |
| 20260504011544 | 63 | 0 | 1.0 | 5.0 | 0.00 | 0.00 | 0.00 | 54 | 1017.9 |
| 20260504010053 | 65 | 9 | 2.0 | 4.0 | 0.00 | 0.00 | 0.00 | 51 | 1018.1 |
| 20260504004542 | 65 | 69 | 1.0 | 3.0 | 0.00 | 0.00 | 0.00 | 51 | 1018.4 |
| 20260504003050 | 65 | 204 | 1.0 | 2.0 | 0.00 | 0.00 | 0.00 | 49 | 1018.5 |
| 20260504001544 | 65 | 0 | 0.0 | 2.0 | 0.00 | 0.00 | 0.00 | 49 | 1018.7 |
| 20260504000046 | 64 | 0 | 0.0 | 4.0 | 0.00 | 0.00 | 0.00 | 49 | 1018.7 |
| 20260503234547 | 63 | 186 | 1.0 | 3.0 | 0.00 | 0.00 | 0.00 | 49 | 1018.8 |
| 20260503233049 | 64 | 77 | 0.0 | 2.0 | 0.00 | 0.00 | 0.00 | 50 | 1019.0 |
| 20260503231545 | 64 | 86 | 0.0 | 2.0 | 0.00 | 0.00 | 0.00 | 48 | 1019.1 |
| 20260503230048 | 64 | 336 | 0.0 | 2.0 | 0.00 | 0.00 | 0.00 | 47 | 1019.3 |
| 20260503224547 | 66 | 0 | 0.0 | 2.0 | 0.00 | 0.00 | 0.00 | 45 | 1019.6 |
| 20260503223050 | 67 | 352 | 1.0 | 2.0 | 0.00 | 0.00 | 0.00 | 43 | 1019.8 |
| 20260503221547 | 68 | 9 | 1.0 | 3.0 | 0.00 | 0.00 | 0.00 | 42 | 1019.8 |
| 20260503220053 | 70 | 9 | 2.0 | 4.0 | 0.00 | 0.00 | 0.00 | 40 | 1020.1 |
| 20260503214544 | 72 | 55 | 1.0 | 5.0 | 0.00 | 0.00 | 0.00 | 37 | 1020.2 |
| 20260503213056 | 73 | 30 | 5.0 | 11.0 | 0.00 | 0.00 | 0.00 | 35 | 1020.2 |
| 20260503211550 | 74 | 346 | 3.0 | 14.0 | 0.00 | 0.00 | 0.00 | 35 | 1020.4 |
| 20260503204558 | 72 | 12 | 4.0 | 11.0 | 0.00 | 0.00 | 0.00 | 37 | 1020.6 |
| 20260503203102 | 74 | 288 | 5.0 | 11.0 | 0.00 | 0.00 | 0.00 | 35 | 1020.6 |
| 20260503201559 | 73 | 316 | 4.0 | 11.0 | 0.00 | 0.00 | 0.00 | 35 | 1020.7 |
| 20260503200055 | 74 | 347 | 6.0 | 15.0 | 0.00 | 0.00 | 0.00 | 35 | 1020.6 |
| 20260503194546 | 75 | 9 | 7.0 | 16.0 | 0.00 | 0.00 | 0.00 | 35 | 1020.6 |
| 20260503193049 | 75 | 27 | 10.0 | 18.0 | 0.00 | 0.00 | 0.00 | 35 | 1020.6 |
| 20260503191547 | 74 | 13 | 5.0 | 12.0 | 0.00 | 0.00 | 0.00 | 36 | 1020.5 |
| 20260503190048 | 74 | 9 | 8.0 | 13.0 | 0.00 | 0.00 | 0.00 | 37 | 1020.3 |
| 20260503184555 | 75 | 349 | 6.0 | 14.0 | 0.00 | 0.00 | 0.00 | 37 | 1020.3 |
| 20260503183058 | 72 | 22 | 5.0 | 13.0 | 0.00 | 0.00 | 0.00 | 39 | 1020.2 |
| 20260503181554 | 71 | 26 | 1.0 | 7.0 | 0.00 | 0.00 | 0.00 | 39 | 1020.3 |
| 20260503180047 | 69 | 12 | 1.0 | 3.0 | 0.00 | 0.00 | 0.00 | 41 | 1020.3 |
| 20260503174547 | 71 | 120 | 0.0 | 2.0 | 0.00 | 0.00 | 0.00 | 39 | 1020.2 |
| 20260503173057 | 73 | 0 | 0.0 | 6.0 | 0.00 | 0.00 | 0.00 | 36 | 1020.3 |
| 20260503171545 | 73 | 360 | 2.0 | 5.0 | 0.00 | 0.00 | 0.00 | 36 | 1020.3 |
| 20260503081606 | 74 | 16 | 5.0 | 13.0 | 0.00 | 0.00 | 0.00 | 36 | 1024.8 |
| 20260503071543 | 70 | 84 | 0.0 | 2.0 | 0.00 | 0.00 | 0.00 | 47 | 1025.2 |